STARLINK-11686 [DTC] (64233 NORAD) Tracking and Keplerian Element Data

This shows tracking and keplerian element data for the satellite.

Feedback or suggestion? Click here.




ElementValue
Catalog64233
NameSTARLINK-11686 [DTC]
Epoch Orbit3265
Epoch Day353.65292587
Epoch Year2025
RAAN331.8529
Inclination42.9998
Eccentricity4.56E-05
Argument of Perigee343.3069
Mean Anonmoly16.7783
Mean Motion15.7087356
Decay Rate0.00189582
L11 64233U 25119A 25353.65292587 .00189582 00000+0 14454-2 0 9990
L22 64233 42.9998 331.8529 0000456 343.3069 16.7783 15.70873560 32655



Live tracking and technical data element details for STARLINK-11686 [DTC] (NORAD 64233). STARLINK-11686 [DTC] can be tracked NOW for your location showing map with azimuth and elevation plus other details from your city location.







IsCatalogInMostPopularTable: catalog: 64233, numindb: 4
Update: records affected: 1



GetName: 64233 STARLINK-11686 [DTC]

Hit Count: updated at: Mon, 09 Feb 2026 08:41:35 GMT